Location: Champseau
(45.8333°N, 1.7667°E)
Time: 06:14:17
(UTC+00:00)

IGS 5A - Pass Details

Date: 18 April 2021
Orbit: 583 x 588 km, 97.6° (Epoch: 06 May)

Event Time Altitude Azimuth Distance (km) Brightness Sun altitude
Exits shadow 21:04:12 28° 211° (SSW) 1,112 4.7 -21.7°
Maximum altitude 21:05:52 42° 262° (W) 841 4.4 -21.9°
Drops below altitude 10° 21:09:49 10° 334° (NNW) 1,915 7.1 -22.4°
Sets 21:12:05 0° 341° (NNW) 2,820 8.0 -22.6°
